Theta_e
307 307 307 307 307 307 307 308 307 308 309 309 309 309 309 309 309 309 309 310 310 309 308 309 309 313 316 314 313 315 317 319 326 331 329 329 327 323 319 316 317 313 313 325 331 333 332 329 328 332 333 338 342 345 345 341 348 352 359 365 360 360 362 362 366 366 362 358 358 359 357 359 357 353 350 349 348 346 345 343 342 343 342 344 345 345 344 344
307 307 307 307 307 308 308 308 308 308 308 309 309 308 309 309 309 309 310 309 309 309 309 309 309 313 317 315 315 317 319 323 329 334 331 326 322 319 315 313 314 312 314 327 333 333 331 327 328 331 333 339 343 344 345 342 345 350 355 359 358 361 363 362 362 363 362 358 358 359 355 355 354 352 351 351 350 345 344 345 343 345 344 344 345 344 345 345
307 307 307 307 307 307 308 308 308 308 309 309 309 309 309 309 309 309 309 309 310 310 309 309 309 313 316 315 316 319 322 327 332 333 327 320 317 315 313 312 314 313 316 328 334 332 329 326 327 326 331 338 342 343 343 345 346 347 352 358 360 361 361 361 360 362 360 357 359 359 356 353 353 353 353 352 350 347 346 346 345 346 346 343 344 344 345 344
307 307 306 306 306 307 307 308 308 309 309 310 310 310 310 309 310 309 309 310 309 309 310 310 310 313 316 316 317 321 326 332 332 330 323 317 316 314 313 313 316 315 318 329 333 330 327 325 326 324 331 338 342 343 341 343 343 347 353 358 360 359 359 360 359 361 357 357 360 361 358 353 353 355 354 351 348 348 347 345 345 345 345 344 343 343 345 345
307 307 306 306 306 307 307 308 308 309 309 309 310 310 310 310 310 310 310 309 310 309 311 311 311 314 316 316 318 324 329 331 329 328 321 317 315 313 314 316 318 318 324 332 329 325 322 323 324 325 332 339 342 341 341 341 341 352 357 356 358 358 360 361 360 362 359 358 360 361 360 355 354 355 353 350 349 349 347 345 344 345 344 344 344 343 345 344
308 307 308 307 306 307 307 308 309 309 310 310 310 310 310 310 309 310 310 310 312 312 313 312 311 315 317 317 321 326 330 328 329 326 319 316 314 312 314 317 319 321 329 331 327 323 321 323 323 325 334 340 342 340 340 339 340 352 355 355 357 358 362 362 360 361 359 358 361 361 360 356 356 357 353 350 350 347 346 344 343 344 343 344 344 344 344 342
308 308 308 307 307 307 307 307 308 309 310 310 310 310 310 310 309 311 311 313 316 316 315 312 313 317 317 320 326 330 331 331 330 324 320 317 313 312 315 319 319 321 326 326 325 322 321 323 323 327 336 339 341 338 337 337 340 350 356 357 357 358 362 362 360 359 359 360 361 358 356 356 358 358 354 350 348 345 344 344 343 344 343 344 344 343 343 343
308 308 308 307 307 307 307 307 308 309 310 310 310 310 310 310 310 313 316 319 320 318 315 313 315 318 318 323 330 333 332 331 328 323 319 318 317 314 315 320 320 321 323 322 323 322 322 323 324 328 334 337 337 337 336 335 343 352 356 358 358 359 363 361 360 359 360 362 358 356 356 356 358 357 354 348 346 344 343 344 343 343 343 344 344 344 344 344
312 311 310 309 308 307 307 307 308 309 310 310 310 310 310 311 314 317 319 321 320 317 316 316 317 317 319 324 329 329 328 327 327 323 320 321 322 320 319 323 322 321 321 320 321 321 322 322 326 328 332 337 334 335 334 335 346 351 353 358 360 362 362 360 362 361 361 360 358 358 357 357 357 357 352 346 346 344 343 344 343 344 344 345 345 344 345 344
316 315 314 311 309 307 307 307 309 309 310 310 310 310 311 312 317 318 320 321 320 318 317 318 318 317 321 328 332 329 325 325 327 324 321 323 325 324 323 324 323 321 320 321 321 321 322 322 324 326 330 337 333 332 332 337 347 351 351 358 360 361 362 360 361 361 359 359 357 358 360 360 359 358 353 347 346 344 342 344 343 345 345 344 345 344 346 346
318 318 317 314 311 308 308 308 309 309 310 310 310 311 312 315 318 318 320 321 319 319 319 319 318 320 325 331 333 327 323 326 328 325 322 324 326 325 325 325 323 322 320 321 322 321 321 321 323 324 329 335 331 332 335 339 347 351 353 359 359 359 360 359 361 361 360 359 357 358 362 362 359 358 354 348 346 344 343 345 343 345 345 345 346 346 348 348
319 319 319 317 313 310 308 308 308 310 310 310 310 312 314 317 318 318 320 321 320 320 320 320 319 322 328 332 330 323 320 325 326 325 324 323 325 326 325 324 322 322 322 321 322 321 321 321 322 322 328 333 332 333 336 341 347 350 353 359 360 360 360 359 362 361 360 360 357 358 359 359 360 357 354 348 346 346 345 344 344 344 345 345 347 347 347 348
319 319 319 318 315 311 309 308 309 309 310 311 311 313 316 318 318 318 320 320 321 320 320 321 322 325 330 330 324 321 321 325 324 325 324 323 325 324 323 324 321 322 322 322 323 321 320 321 321 321 328 331 331 331 335 341 347 352 355 357 357 358 360 362 362 362 363 360 357 358 355 356 361 358 355 351 347 348 347 345 345 344 344 346 347 348 348 348
319 319 320 319 317 313 310 308 309 310 310 310 311 315 317 318 318 319 321 321 320 320 320 321 323 327 334 329 321 323 323 324 321 323 324 324 324 323 323 323 322 321 321 322 321 321 319 321 321 322 327 330 329 328 331 339 346 353 353 353 353 346 350 361 360 361 363 360 358 359 353 355 361 359 357 354 348 349 347 344 344 344 345 346 348 348 348 349
319 319 319 319 318 315 311 309 309 310 310 310 312 316 318 319 320 320 321 320 321 321 320 322 325 330 335 329 323 323 323 324 322 324 325 324 324 324 324 322 320 319 319 321 320 320 319 320 321 323 327 330 329 328 328 336 349 354 343 337 344 341 347 362 361 360 362 358 360 360 353 354 362 359 358 356 353 355 350 345 343 344 346 346 348 349 348 348
318 319 320 319 319 316 313 309 309 310 310 311 313 317 319 319 321 322 322 321 322 322 322 327 332 334 333 326 324 324 325 325 323 324 323 322 324 324 323 321 320 319 319 319 318 319 320 321 323 325 329 331 330 329 326 328 338 350 340 329 335 339 344 356 358 361 361 358 360 361 356 357 361 359 358 359 358 359 356 349 344 343 345 347 348 349 348 349
315 317 319 319 319 317 314 310 309 310 310 311 313 317 319 320 322 322 322 321 322 322 323 329 334 336 332 325 324 323 325 323 321 323 323 322 324 324 322 320 319 319 318 318 318 319 320 322 324 326 330 330 329 328 322 318 321 334 336 330 335 341 343 349 357 360 359 359 361 360 358 358 359 359 359 359 357 358 357 351 349 347 345 347 347 348 350 349
313 315 317 318 319 318 315 311 309 310 310 312 314 316 320 323 322 322 323 326 328 327 327 330 332 330 326 323 323 322 323 322 321 322 322 322 322 321 322 321 319 318 318 318 318 318 320 323 324 328 330 327 328 327 320 318 323 326 328 327 331 337 340 346 353 358 359 359 361 359 359 359 359 358 360 361 359 356 356 355 355 353 347 345 346 348 351 350
311 312 314 316 318 318 316 312 310 309 310 312 314 315 323 327 326 324 328 331 332 332 329 327 330 327 322 322 324 322 321 322 321 321 321 322 321 321 322 322 320 318 317 318 318 319 321 324 325 325 325 326 328 326 324 328 334 333 332 330 328 329 336 347 354 357 359 358 360 360 359 361 360 358 362 363 362 359 356 356 356 353 349 347 344 348 351 350
312 311 311 313 316 318 316 313 311 309 311 312 313 318 328 333 330 329 331 332 332 333 325 322 326 324 322 323 323 322 322 322 321 322 322 321 322 322 323 321 320 318 318 320 318 320 322 322 323 324 324 328 329 329 328 331 337 335 335 333 330 331 338 351 358 357 360 355 356 361 358 360 360 359 362 363 363 362 357 356 357 352 351 350 344 347 351 351
312 311 311 311 313 316 317 314 311 310 310 309 314 322 330 327 325 326 326 328 330 328 322 322 324 322 322 322 323 322 323 322 322 321 322 321 322 322 320 320 319 319 320 321 321 322 323 320 322 326 326 326 328 330 330 331 335 334 330 329 327 331 340 353 358 357 361 355 352 359 360 359 359 360 360 361 363 364 359 357 358 353 352 352 347 347 350 351
312 312 312 310 311 314 316 314 311 310 310 311 317 326 327 322 323 324 322 324 326 324 323 324 323 323 323 323 324 324 323 323 322 322 322 321 322 322 322 320 320 320 321 323 324 323 321 320 323 326 325 327 328 329 330 330 334 332 329 325 322 331 342 349 357 359 362 355 348 357 358 356 360 359 359 360 362 363 362 359 358 354 354 354 349 347 350 350
313 313 312 311 311 312 315 314 311 310 310 315 323 327 325 323 323 323 323 324 325 324 323 322 324 324 323 322 324 323 324 323 321 322 321 321 323 322 321 321 320 321 321 322 324 321 317 319 324 324 326 328 329 330 329 327 327 327 327 319 319 333 336 336 349 357 359 353 348 354 355 357 363 359 358 360 358 363 362 361 360 356 354 352 350 348 349 351
314 314 314 313 311 311 314 314 311 311 313 317 322 323 323 322 323 324 323 325 326 324 323 322 322 322 322 322 324 324 323 323 322 321 321 322 324 321 321 322 322 321 322 321 323 321 320 322 326 325 326 328 326 327 327 323 321 323 327 320 320 331 328 333 347 350 349 352 356 353 343 347 360 361 360 359 357 362 362 360 362 359 353 351 351 348 349 351
314 314 314 314 313 312 313 313 313 314 317 321 323 323 322 322 324 325 324 325 324 325 324 323 322 322 322 322 323 324 323 322 322 322 322 322 323 322 321 322 322 321 321 321 321 320 321 324 324 325 325 325 323 324 324 322 318 318 325 325 325 329 328 338 347 340 332 337 353 350 332 337 355 360 360 359 360 363 362 361 361 359 356 352 350 348 347 349
313 314 315 315 315 311 313 318 320 320 320 321 323 323 322 323 324 325 325 323 321 324 322 321 322 321 321 322 324 324 322 322 323 324 323 323 322 322 321 320 322 321 321 322 321 319 321 323 323 324 323 324 323 320 321 323 317 314 322 328 328 329 328 333 339 331 322 326 349 352 334 335 347 353 358 361 363 363 361 362 360 359 359 354 351 349 346 347
313 314 315 315 315 313 317 322 319 319 322 321 323 322 321 323 325 326 325 319 317 322 322 322 321 320 320 322 322 322 319 321 324 324 324 323 322 323 323 322 322 320 321 321 316 317 321 321 321 322 321 321 320 318 321 323 316 314 323 327 327 328 330 330 330 327 324 329 343 352 343 336 337 346 358 362 363 363 362 362 361 359 359 355 351 348 346 345
312 314 314 316 315 313 317 319 317 320 323 322 322 322 322 323 325 327 325 317 319 321 323 322 320 320 321 322 322 321 321 322 323 324 323 322 323 324 323 324 323 321 323 320 313 317 322 322 321 322 320 319 318 319 322 322 318 318 324 325 323 326 329 331 329 325 328 329 326 337 346 336 333 345 359 363 361 361 361 361 361 359 358 357 351 347 346 345
312 313 314 316 315 317 322 322 320 320 318 320 321 321 322 322 324 327 322 319 322 320 322 321 319 321 321 321 321 321 322 322 322 324 324 322 322 324 322 324 323 321 322 320 318 322 324 323 322 323 321 319 320 322 322 322 321 321 323 322 323 325 325 328 330 323 325 325 319 325 336 332 332 343 354 359 358 359 361 360 358 358 357 356 351 346 347 345
312 313 314 315 317 323 327 324 322 317 315 318 318 320 321 321 324 321 317 319 321 321 322 320 320 321 320 320 320 321 322 322 323 323 323 323 323 323 323 324 323 322 323 322 322 323 323 322 323 323 322 321 321 323 322 323 323 322 323 322 321 322 323 325 327 323 322 322 321 325 333 333 331 338 349 357 358 358 360 358 357 358 356 356 352 347 347 346
313 314 315 314 317 320 321 322 323 321 321 320 318 320 321 323 322 316 316 323 319 320 321 320 322 321 321 321 320 322 322 322 322 322 322 324 323 324 324 322 323 323 323 321 322 323 323 323 323 322 322 321 321 322 323 325 323 323 323 319 315 315 319 318 319 324 322 321 328 335 340 337 331 336 347 356 359 354 356 359 359 358 356 356 354 348 346 346
314 315 315 315 315 316 317 318 320 321 323 322 321 322 321 321 319 313 318 321 317 319 320 320 322 321 321 321 321 323 322 321 323 323 323 324 323 326 325 322 322 318 313 316 318 320 322 323 325 324 323 323 322 319 320 322 322 324 320 315 311 310 314 315 315 320 319 321 334 341 339 334 330 337 348 352 354 351 353 358 357 357 357 355 355 351 347 346
316 316 316 316 316 317 316 317 319 321 323 321 320 323 322 318 315 316 320 319 315 319 322 321 322 321 321 321 321 322 321 321 323 322 323 322 322 324 324 325 323 319 314 315 314 312 316 322 325 324 324 323 324 318 315 317 322 324 318 312 311 311 314 316 316 317 317 322 336 342 338 330 326 335 346 348 351 349 350 356 355 354 356 356 354 351 349 347
317 317 317 317 317 317 316 318 322 323 321 320 321 322 320 315 318 320 322 322 320 321 322 321 321 321 320 320 321 322 320 320 322 323 321 321 322 322 324 324 323 323 321 317 313 311 311 315 321 325 323 323 326 323 319 321 323 324 325 321 314 313 314 314 315 316 316 322 333 338 334 328 326 336 347 344 346 348 349 355 354 353 356 357 355 353 349 346
317 319 321 321 319 316 314 315 321 322 320 321 322 321 316 313 317 320 321 324 323 322 322 321 321 319 318 320 322 323 320 319 322 323 321 321 320 321 323 323 323 324 321 315 315 315 309 311 323 326 325 326 325 326 326 325 322 324 330 324 317 319 319 315 314 315 314 319 327 328 327 331 336 342 346 345 350 355 355 354 353 352 353 355 356 355 352 348
317 322 327 328 325 322 318 315 319 321 320 322 321 317 316 317 320 322 323 324 323 323 321 318 319 317 314 318 321 323 321 320 322 321 320 321 322 322 323 324 324 323 321 318 317 316 310 312 326 327 324 328 326 325 328 325 321 324 324 320 322 328 325 316 314 317 316 317 321 321 320 329 338 342 346 347 351 356 356 352 350 352 352 354 356 356 354 353
321 324 326 328 329 328 324 318 319 320 319 321 320 317 320 322 324 325 325 324 322 323 320 314 316 316 312 314 317 322 322 319 321 319 317 320 320 322 324 323 323 322 322 322 319 320 315 313 323 327 323 327 327 327 328 327 327 326 321 322 328 332 329 322 317 319 321 320 321 320 319 326 332 337 347 349 349 354 354 351 349 349 351 353 355 357 356 353
323 327 324 325 328 326 323 319 318 319 319 320 321 321 323 322 324 325 326 326 324 325 320 314 316 318 315 313 315 323 321 316 318 318 316 318 317 321 325 323 323 322 323 322 320 322 320 312 318 326 324 325 328 326 323 326 331 328 326 330 329 325 326 327 322 321 324 323 322 320 320 325 330 335 343 347 349 351 352 351 351 350 351 353 355 358 358 356
326 330 327 326 326 325 323 320 319 318 318 319 319 321 322 321 324 325 325 327 324 324 322 317 318 319 318 317 317 323 322 317 318 318 316 318 317 320 324 323 323 323 323 322 320 322 322 314 313 323 326 325 326 324 318 321 330 330 330 332 330 325 324 326 324 323 325 324 324 322 321 326 335 341 346 350 352 351 351 352 353 352 350 350 352 355 358 358
328 328 328 327 325 324 324 320 319 318 319 319 318 320 321 321 323 323 324 326 325 323 321 321 321 319 320 321 320 322 324 321 321 319 317 319 319 320 322 322 322 322 322 322 322 322 323 317 311 319 326 320 320 322 320 322 326 326 325 325 327 327 325 326 326 323 322 323 325 326 326 329 340 349 351 352 351 352 352 353 354 352 350 351 351 350 357 360
325 325 326 327 325 323 322 319 317 318 318 319 319 319 320 322 322 323 323 325 324 323 322 321 323 321 320 321 320 321 322 323 322 320 320 321 318 318 322 323 321 322 322 321 322 321 321 318 313 314 317 315 318 326 327 327 329 327 326 324 325 329 330 332 331 325 320 320 322 324 325 333 347 352 351 350 350 351 352 353 355 353 352 357 356 351 355 360
328 327 326 327 325 322 319 317 318 318 319 319 320 320 321 322 322 321 322 324 324 323 322 321 322 322 323 321 321 322 322 321 321 321 320 321 320 320 322 323 322 323 321 319 321 323 323 321 315 312 315 318 323 328 326 327 330 329 329 329 328 328 330 330 330 326 321 320 322 321 322 335 349 352 350 351 353 354 352 352 355 354 354 361 362 356 355 358
328 327 326 325 325 321 318 318 318 320 319 320 321 321 321 323 322 321 322 324 324 323 322 322 322 321 322 321 322 323 322 321 320 321 321 322 323 322 323 323 322 322 321 319 322 324 324 321 315 312 317 322 324 326 326 328 329 327 328 333 331 328 329 331 332 330 325 322 322 322 324 335 348 352 352 351 353 354 351 350 354 355 356 362 364 359 357 357
324 325 325 325 324 321 319 319 319 320 321 321 322 321 322 323 321 322 322 322 323 323 321 322 323 322 321 321 321 322 322 319 319 322 323 322 323 323 322 321 322 320 320 323 325 322 320 320 317 314 315 317 318 320 321 324 327 327 330 334 333 331 331 330 331 332 330 325 325 325 326 333 345 351 350 351 352 352 351 350 351 354 356 358 360 357 356 358
324 326 326 324 323 322 321 320 320 322 323 323 323 323 323 324 323 322 321 321 322 322 322 322 322 321 321 321 321 322 322 320 319 322 322 321 323 322 321 322 321 320 323 327 329 323 320 321 320 314 314 316 316 316 317 321 325 326 329 332 332 332 330 328 330 333 332 329 328 330 333 338 346 350 350 351 352 355 360 356 350 355 357 355 357 357 357 358
325 328 329 325 323 321 321 321 320 322 323 323 326 326 325 325 324 322 321 321 321 323 323 322 322 322 321 321 321 321 323 322 321 323 322 323 323 321 322 323 319 323 329 328 324 322 322 322 321 318 316 316 316 318 321 323 321 320 323 327 329 330 331 332 331 331 334 332 328 333 341 341 341 348 352 351 351 355 360 358 353 355 356 353 355 356 357 358
327 330 329 327 326 323 321 321 319 320 321 322 326 328 327 325 324 323 321 321 322 322 323 323 323 323 321 322 321 320 321 322 322 322 322 323 323 321 323 321 321 331 337 327 319 322 320 317 319 321 319 319 321 323 324 323 320 319 321 323 325 328 331 332 329 329 334 332 326 333 342 337 336 345 348 348 351 353 355 356 355 355 354 353 355 355 355 356
327 330 326 327 327 326 325 324 322 322 321 321 323 326 326 326 325 324 323 321 321 323 323 323 324 323 322 323 320 319 320 321 321 323 323 323 323 322 322 321 323 331 332 322 320 324 320 317 319 319 318 321 323 323 323 323 322 323 325 324 325 327 327 328 327 329 332 329 326 331 338 338 338 343 346 348 352 350 350 354 354 354 354 354 354 355 355 355
325 327 325 325 326 327 328 326 326 325 324 324 325 323 323 326 326 325 324 323 323 322 323 324 323 323 322 323 321 321 322 319 318 323 325 324 324 323 323 323 322 324 325 322 323 325 321 319 322 320 317 319 322 323 322 322 320 322 325 326 326 326 325 326 328 331 332 330 330 334 337 338 341 344 349 350 350 347 347 351 353 353 355 354 354 355 355 355
326 326 326 325 324 325 326 327 327 327 327 327 327 327 325 325 327 326 324 324 325 325 323 323 323 323 322 323 323 322 323 321 321 324 325 324 324 324 324 323 323 322 324 323 324 324 322 319 323 322 316 315 320 321 321 320 319 318 320 324 325 324 325 327 328 330 330 328 333 336 333 336 346 350 349 350 350 348 346 345 349 353 354 355 355 355 355 355
325 325 325 326 326 326 325 326 327 327 327 328 327 328 327 326 327 327 326 325 325 324 324 323 323 322 322 322 322 321 322 322 322 323 324 324 324 325 325 323 324 323 324 323 323 324 323 321 322 321 314 313 318 319 318 320 320 316 317 321 324 322 322 325 328 330 329 327 331 332 328 335 348 350 349 349 350 350 346 344 347 351 353 354 355 355 356 356
325 324 324 326 327 328 326 325 327 326 326 326 327 327 326 326 326 325 326 326 324 325 325 324 324 324 324 324 322 323 323 322 322 323 324 324 323 323 323 323 322 324 323 324 324 325 325 322 320 319 314 313 317 318 319 319 317 314 318 323 326 325 325 326 328 330 333 332 331 328 331 342 351 350 349 349 348 348 349 348 347 348 350 351 353 354 355 355
Wind_Speed
14 14 13 14 14 14 14 14 14 14 14 14 14 14 14 14 15 15 16 16 16 16 16 16 15 14 13 13 12 12 11 7 8 10 11 8 8 9 7 7 10 10 8 10 12 11 10 11 10 10 9 8 6 4 6 3 4 3 2 3 0 1 2 3 2 3 2 5 8 7 7 8 8 7 6 6 6 7 7 6 9 11 13 16 19 22 22 20
14 14 14 14 14 14 14 14 14 14 15 15 15 15 16 16 17 17 17 17 17 17 17 16 14 14 13 12 12 10 10 8 13 12 7 5 6 8 9 9 9 9 10 12 12 10 9 9 8 6 7 6 3 3 5 2 0 1 1 3 2 1 1 3 3 4 3 5 7 6 6 7 8 8 6 6 7 8 8 9 11 15 17 18 20 22 20 19
14 14 14 14 14 14 14 14 15 15 15 16 16 16 17 17 18 19 19 18 18 18 17 16 14 14 12 11 10 8 9 11 12 6 1 3 5 5 6 8 8 9 12 13 11 10 10 11 11 8 7 6 2 4 5 2 1 2 3 2 3 5 1 4 5 4 2 5 5 3 4 6 8 7 5 6 9 8 9 11 12 15 16 17 18 19 20 19
14 14 14 14 14 14 14 14 15 15 15 16 16 17 17 18 19 19 20 20 19 18 18 16 13 12 11 11 9 7 8 11 4 5 5 6 4 3 5 7 7 10 12 13 14 13 13 12 11 10 8 7 4 5 5 2 1 3 4 2 3 9 3 7 7 4 4 5 4 2 5 8 8 5 5 7 8 7 9 11 12 15 17 17 17 17 18 17
15 15 15 15 14 14 14 15 15 15 15 16 17 17 17 18 19 19 20 20 20 19 17 15 13 11 10 10 7 6 8 5 4 7 5 5 3 3 5 6 8 9 9 12 15 13 11 11 10 9 8 6 5 5 4 2 5 4 3 3 4 6 5 8 6 3 2 4 5 3 3 6 7 6 6 6 5 6 8 11 14 15 16 16 16 16 15 15
16 16 16 16 16 15 15 15 15 15 15 16 17 17 18 18 19 20 20 20 20 18 16 13 11 10 9 9 6 3 7 1 6 5 6 5 2 3 5 7 9 8 8 12 13 11 9 9 9 8 7 6 7 6 1 3 4 2 2 3 1 2 4 6 6 3 2 3 5 2 3 2 4 7 6 4 4 7 9 11 15 15 16 17 16 15 14 13
16 16 17 17 17 16 16 16 16 16 16 16 17 18 18 18 19 20 20 19 18 16 13 11 10 9 8 8 5 4 8 1 6 5 5 3 1 3 6 8 8 7 9 12 11 9 8 9 9 8 8 7 7 5 1 2 2 4 4 3 2 4 3 3 5 5 3 3 6 4 3 4 2 6 5 4 5 9 11 12 16 15 16 17 14 14 13 12
16 16 17 17 17 17 17 17 16 16 16 17 17 18 18 19 20 19 18 16 15 12 10 10 8 7 7 6 5 7 5 4 7 4 5 3 3 3 6 7 8 9 10 12 10 9 8 9 10 8 8 6 6 5 1 2 3 9 5 3 4 6 4 1 4 6 3 4 7 7 4 5 5 2 4 5 6 9 11 13 16 15 15 15 14 14 12 11
16 17 17 17 17 17 17 17 17 16 16 17 17 17 18 19 19 16 16 14 11 10 8 9 7 6 6 5 8 7 1 6 7 5 4 3 2 3 5 7 9 9 11 10 10 10 8 8 9 6 8 8 8 5 4 5 4 9 6 7 7 6 5 3 5 8 7 5 7 8 3 5 5 2 4 6 6 9 11 13 15 14 14 13 13 13 11 11
16 17 17 18 18 17 17 17 17 16 16 17 17 17 17 18 17 14 14 11 8 9 8 7 7 6 5 5 9 4 4 2 4 5 3 3 3 4 6 8 8 8 10 10 9 10 9 10 9 8 9 8 7 3 5 3 4 8 7 9 8 7 7 6 6 8 9 8 7 7 3 3 3 3 3 5 6 10 12 14 14 13 13 13 12 12 11 11
17 17 18 18 18 18 18 17 17 16 16 17 17 17 17 17 15 14 12 8 6 9 8 7 6 6 5 8 8 3 2 3 2 4 3 3 4 5 6 6 6 8 9 9 9 9 11 11 10 8 6 6 7 4 3 5 9 8 7 9 7 7 9 9 8 7 6 7 6 5 2 4 3 2 3 5 5 9 12 13 14 13 12 12 12 12 10 10
17 17 18 18 19 19 18 18 17 16 16 17 17 17 17 16 15 14 11 6 6 8 8 6 5 5 6 10 5 5 3 3 1 2 4 4 5 5 6 6 5 8 9 9 8 7 11 12 10 9 6 7 8 4 4 6 11 8 4 4 4 5 6 7 5 4 5 5 3 5 4 2 4 2 4 6 4 8 13 13 13 12 11 11 12 10 9 10
17 18 18 19 19 19 19 18 17 17 17 17 17 17 17 16 15 14 10 6 6 9 8 6 4 4 7 6 3 5 4 2 1 3 4 5 6 5 4 6 6 8 9 10 10 8 9 10 10 11 10 10 6 4 2 3 10 6 1 1 3 3 3 4 3 3 4 6 4 3 1 2 5 4 4 5 4 7 11 12 11 11 11 11 10 9 9 11
17 17 18 19 19 20 19 18 17 17 17 17 17 17 17 16 15 14 11 7 6 9 8 6 3 2 7 2 6 3 1 2 2 4 6 5 5 5 4 5 6 7 8 10 10 10 9 9 10 11 9 10 7 6 6 5 7 3 1 2 3 1 2 1 2 3 4 6 5 2 1 3 5 6 5 5 5 8 10 12 11 10 10 11 9 9 9 10
17 17 18 19 20 20 20 19 18 17 17 17 17 18 17 15 14 13 12 8 7 9 8 8 5 5 7 3 5 4 3 6 5 5 5 5 6 6 4 3 5 6 7 8 9 9 9 9 9 9 8 11 9 7 8 5 6 3 3 3 2 2 2 2 3 3 3 5 7 4 1 3 5 5 6 3 3 4 5 9 11 10 10 11 9 9 9 9
17 17 18 19 20 20 20 19 18 18 18 18 18 18 17 14 13 13 12 8 9 8 5 7 7 10 7 2 7 5 5 5 2 4 3 4 8 4 2 2 4 5 6 7 8 8 8 9 8 8 9 10 8 6 7 5 5 5 4 2 2 3 4 3 1 4 4 5 7 6 2 3 4 5 3 4 3 5 4 7 11 12 11 11 9 9 8 8
17 17 18 19 19 20 20 20 19 18 18 18 19 19 16 14 13 12 10 9 11 8 6 9 9 9 5 1 7 6 4 1 2 3 3 3 7 4 1 5 4 5 7 7 8 8 7 7 6 7 7 7 7 6 6 6 3 3 4 2 2 3 4 3 1 3 5 4 5 6 4 3 2 5 2 3 3 3 6 7 4 5 9 10 8 9 8 7
18 18 18 18 19 20 20 20 19 19 19 19 19 19 17 14 13 11 9 8 7 6 9 12 10 6 2 3 3 0 2 3 1 3 3 2 4 3 5 5 3 5 7 7 8 8 7 6 6 7 6 6 6 7 7 4 1 1 1 1 1 3 4 5 2 4 6 4 4 6 6 4 3 6 4 3 5 4 6 6 3 5 6 10 9 10 9 8
19 18 18 19 19 19 20 20 19 19 20 19 18 19 17 11 9 10 9 7 4 5 4 5 9 4 1 2 1 3 5 4 1 3 4 2 2 6 7 4 3 6 7 5 7 8 6 5 6 6 5 9 9 6 8 2 5 4 4 3 2 3 5 7 6 5 6 5 4 6 6 5 7 8 7 5 4 5 6 5 1 5 6 7 10 9 9 9
19 19 19 19 19 19 19 20 19 19 21 21 19 16 11 5 4 4 6 8 10 9 6 2 4 5 3 1 3 5 4 2 5 4 3 2 3 6 6 5 6 7 7 6 6 7 6 5 7 6 7 10 5 4 11 5 5 6 5 5 6 5 7 8 8 8 8 4 3 5 5 4 8 10 9 8 5 5 6 4 5 6 5 8 10 11 10 10
21 20 20 19 19 19 18 19 18 18 20 22 18 10 6 6 4 3 3 8 11 8 5 3 3 4 5 6 5 3 5 7 5 2 4 4 6 6 5 6 7 5 7 8 5 6 6 7 6 8 11 10 6 8 8 4 1 5 4 5 7 4 8 10 9 10 9 4 2 5 4 4 7 10 9 10 8 7 8 8 8 9 7 8 8 13 12 8
21 21 21 21 19 19 18 18 17 16 18 18 12 10 7 9 7 7 8 10 6 4 3 1 4 3 5 4 3 2 6 7 5 5 5 5 8 6 4 5 8 7 6 7 4 5 7 7 8 13 11 6 4 7 7 5 4 7 5 6 5 4 8 9 10 11 9 4 1 4 2 3 4 8 8 9 10 8 8 9 9 10 8 6 7 11 14 9
21 22 22 21 21 19 18 18 16 15 16 13 12 12 8 8 8 10 8 9 6 5 7 5 6 5 5 2 3 4 10 5 3 7 6 6 8 5 5 6 7 6 5 5 5 6 6 3 5 10 3 2 4 5 6 6 6 7 6 7 2 7 5 3 7 10 9 3 3 4 3 1 0 4 7 7 7 6 5 6 7 8 7 6 9 7 14 13
21 22 22 22 22 19 19 20 15 14 14 13 16 11 8 7 10 13 8 8 7 6 5 1 4 2 3 2 1 6 7 1 1 6 6 7 7 2 5 7 6 6 5 6 9 10 8 4 4 4 5 3 6 6 7 6 6 8 8 8 4 4 3 4 8 9 8 4 3 2 3 3 4 6 6 4 6 6 6 6 7 7 8 8 9 8 12 16
22 22 22 23 23 20 21 18 11 10 11 14 15 7 6 7 10 12 8 6 6 5 5 3 3 0 4 2 4 5 3 2 4 6 6 7 7 3 4 3 3 6 3 5 7 8 11 6 1 1 1 1 5 6 8 7 6 8 8 9 8 7 7 7 12 6 4 2 3 2 4 1 5 5 5 6 8 8 8 9 10 8 9 10 9 9 11 16
23 22 22 22 22 23 18 9 6 9 11 11 6 2 5 7 10 11 6 5 6 5 7 6 5 3 2 5 4 0 2 4 6 5 4 4 7 7 4 1 4 4 5 1 4 5 8 5 4 1 6 5 7 6 8 8 6 7 5 5 8 8 4 4 6 2 2 1 4 3 4 2 2 3 6 9 10 11 10 10 11 10 9 11 10 9 11 14
24 23 23 21 21 22 13 6 12 13 9 5 4 5 7 7 10 9 5 5 5 4 7 6 4 3 3 2 3 2 1 4 5 3 3 2 5 7 5 4 4 2 2 3 5 3 6 5 1 2 7 6 7 7 7 8 6 8 6 6 9 9 4 3 6 2 2 3 3 6 4 4 3 4 8 10 9 11 12 12 12 11 11 12 12 11 11 14
24 24 23 20 18 17 11 11 15 13 8 8 8 8 8 9 10 7 5 5 1 2 3 5 5 3 4 2 4 6 1 3 3 4 4 1 5 6 5 6 4 1 2 4 3 3 5 9 5 5 7 5 6 7 6 7 6 8 11 8 8 9 5 6 8 3 2 4 5 5 5 3 3 2 6 10 9 11 14 15 14 13 13 13 13 13 12 13
25 24 23 22 17 12 10 11 13 14 13 12 10 10 10 11 10 5 6 4 2 2 1 3 3 6 5 3 6 5 3 4 2 3 6 2 5 5 7 7 5 4 5 7 7 1 2 5 6 3 5 6 6 7 6 7 7 6 10 9 7 8 6 5 6 5 4 5 8 7 7 4 2 3 6 8 8 11 13 14 14 14 14 13 13 14 13 12
25 24 23 22 15 8 9 12 13 13 13 12 11 12 12 10 6 5 6 3 1 3 4 2 2 6 6 7 8 5 4 4 1 3 5 4 5 5 5 5 5 6 7 8 10 7 3 3 3 3 5 7 7 7 5 4 7 8 8 8 8 8 6 5 6 4 4 6 6 4 2 3 4 4 6 5 7 10 11 11 13 14 14 14 14 15 14 12
25 23 22 21 15 9 9 9 7 8 8 10 11 11 10 6 4 7 5 1 0 3 6 5 4 5 7 8 7 7 6 4 4 5 5 5 8 6 5 7 6 6 8 8 9 11 9 7 4 5 6 7 7 7 6 4 5 7 7 7 7 7 5 5 6 4 5 6 1 4 6 3 4 2 5 7 7 9 10 12 14 16 16 14 13 14 14 12
25 23 21 20 17 15 14 10 7 10 9 9 10 8 7 5 6 7 4 2 2 4 3 4 6 5 7 7 6 5 4 4 6 6 5 5 7 6 6 5 3 5 7 6 7 10 10 8 5 6 8 4 6 6 6 7 7 6 5 6 5 6 5 5 6 5 6 4 4 4 3 3 5 3 5 9 9 9 10 12 15 17 16 15 14 15 13 11
25 22 20 18 18 19 19 14 11 11 10 9 8 5 5 6 6 7 7 4 1 3 1 2 4 3 5 6 5 2 0 3 6 5 4 5 6 7 10 6 3 5 6 7 3 5 5 8 6 4 7 5 3 5 5 4 5 7 5 4 5 5 5 6 5 5 7 1 7 4 1 4 5 1 3 7 9 10 9 12 15 17 16 15 15 15 14 13
24 19 18 17 19 19 16 13 10 9 10 8 6 5 7 8 7 8 8 3 4 4 2 2 3 4 6 7 3 4 4 5 5 4 4 6 9 6 9 4 1 3 4 6 4 2 3 5 7 3 4 3 3 5 6 7 6 5 3 5 6 5 6 6 5 5 5 2 7 5 2 4 3 0 5 4 3 5 6 10 12 14 15 13 11 12 14 14
23 15 14 14 17 16 12 13 11 9 9 7 6 7 8 8 7 7 6 3 2 4 4 3 3 6 6 5 2 3 5 4 3 5 4 6 8 2 3 3 3 2 4 5 4 4 6 1 6 4 3 4 7 3 4 7 7 4 5 6 5 6 8 6 6 9 8 3 3 4 3 1 1 2 4 7 10 7 4 5 9 11 12 11 9 10 12 14
21 13 10 11 13 11 9 11 11 9 9 7 6 7 8 7 7 6 3 5 4 1 3 5 5 7 6 7 6 5 5 4 2 4 5 6 8 2 3 3 5 3 6 5 5 6 4 1 5 5 5 6 4 4 4 5 4 3 4 6 4 7 9 8 7 9 10 7 2 1 2 1 2 1 3 8 10 7 6 2 7 9 10 11 10 9 10 12
21 12 11 13 12 9 9 10 10 10 8 6 7 8 8 8 10 9 2 2 4 4 4 4 4 5 6 5 7 9 8 6 4 4 4 6 5 1 1 2 4 4 8 6 6 6 5 3 5 4 2 3 4 2 7 4 2 3 3 5 6 6 7 6 5 6 6 7 3 3 5 1 2 2 2 4 4 6 1 3 5 7 9 11 9 7 9 11
18 11 12 14 9 9 10 10 10 10 7 6 9 10 10 10 11 11 2 3 4 4 5 7 2 2 7 5 4 10 8 5 6 5 5 5 3 2 3 1 5 1 6 6 6 4 4 7 4 1 1 3 7 2 6 3 3 3 4 3 3 3 3 3 3 5 5 6 5 5 6 0 2 1 1 2 2 3 2 2 3 5 7 9 9 8 9 9
14 9 8 8 11 11 10 11 10 8 6 7 9 8 10 12 12 11 6 3 6 6 5 8 5 3 7 5 1 6 7 4 5 4 3 3 3 1 2 2 2 3 2 6 6 4 4 7 2 4 1 1 3 1 3 3 4 2 5 3 4 4 3 1 2 3 4 6 5 6 5 0 2 1 2 1 2 1 1 1 2 4 5 6 8 9 8 8
11 7 2 10 14 11 11 10 8 7 7 8 9 7 9 11 11 12 6 2 5 5 5 8 6 4 6 5 4 3 5 3 3 4 3 3 3 5 4 1 4 2 2 4 5 3 3 4 4 4 3 3 2 1 2 1 1 3 5 3 4 4 4 3 3 4 4 5 4 5 4 1 2 1 1 2 3 2 2 1 2 3 3 4 6 9 9 7
9 7 2 11 12 12 13 8 7 7 7 9 9 10 11 10 10 11 8 7 6 7 7 9 8 6 5 5 6 5 3 3 3 5 3 4 3 3 3 4 2 3 5 4 6 4 3 3 5 5 4 4 1 4 2 1 3 0 2 3 4 4 4 5 4 3 4 4 3 5 4 2 2 3 3 4 5 4 5 4 1 1 3 3 4 7 7 7
7 5 4 11 12 13 10 6 6 6 7 9 9 12 11 8 9 11 4 7 6 8 8 8 9 8 6 5 6 4 3 4 4 4 5 4 2 3 5 6 3 3 5 6 5 8 7 5 6 7 6 8 9 5 1 5 3 3 5 4 5 2 1 3 3 3 5 4 4 6 5 1 2 2 1 3 4 4 6 8 3 3 3 3 1 5 5 7
6 5 3 10 13 13 8 6 7 7 8 10 12 15 13 6 6 10 7 5 6 7 8 8 8 8 6 5 5 4 2 3 6 5 4 2 6 10 7 4 3 3 5 6 3 8 6 5 4 6 6 9 13 9 2 7 1 5 3 4 5 4 3 1 1 4 6 6 5 6 4 0 3 2 0 2 3 4 7 9 8 2 2 4 5 4 6 7
7 8 3 8 12 12 8 7 8 8 9 12 14 15 13 7 6 9 10 8 7 6 8 8 7 8 7 6 7 6 4 4 7 5 4 4 5 10 6 4 1 5 4 3 5 5 4 2 1 4 5 5 8 7 2 3 2 3 2 2 2 5 6 3 1 3 4 6 8 7 4 2 2 2 2 5 7 5 5 6 7 4 2 3 3 4 6 6
7 7 5 7 11 11 8 7 9 9 9 11 13 14 13 8 7 10 12 11 9 8 9 8 7 8 8 6 6 8 5 2 4 5 3 3 3 4 4 5 1 5 4 11 9 6 5 4 3 4 4 4 5 4 3 3 3 2 4 4 2 3 3 2 0 2 0 5 8 6 4 4 3 3 2 5 7 2 1 4 2 5 3 3 3 3 5 5
5 6 6 6 9 8 7 8 10 10 10 11 10 11 13 11 9 10 11 12 10 10 10 8 9 10 10 8 7 8 7 5 4 3 3 3 1 3 7 8 3 1 8 11 8 5 5 5 4 6 6 6 6 6 8 9 7 5 6 7 8 6 4 6 2 1 3 4 4 1 1 5 7 2 2 3 2 2 2 4 4 4 3 4 3 3 5 5
4 5 6 3 3 6 7 8 10 10 10 11 8 9 10 11 9 9 11 9 9 10 10 9 10 10 9 9 8 8 9 8 8 6 4 4 4 2 9 10 7 6 7 3 6 3 4 5 7 9 11 12 11 10 12 13 9 5 7 10 11 7 5 8 5 4 5 3 4 2 1 4 7 3 3 2 3 4 4 2 4 3 3 3 3 4 5 6
5 5 6 9 5 6 6 5 7 9 13 13 9 10 12 11 10 9 10 9 8 10 8 7 11 11 9 9 8 7 8 8 9 10 6 4 5 4 9 8 5 12 8 6 5 3 4 6 7 11 12 13 12 10 10 11 7 2 5 10 11 10 8 8 8 6 6 5 6 3 0 3 7 4 2 2 3 5 9 7 2 4 4 3 4 5 6 7
6 6 7 10 9 9 9 10 11 10 12 11 8 10 13 13 12 11 8 8 7 9 9 8 10 11 11 11 8 7 8 7 9 8 5 5 7 5 6 6 4 12 7 8 5 5 5 4 4 9 11 13 13 11 12 12 7 5 7 10 10 10 11 10 9 8 8 9 8 5 4 5 4 3 4 2 3 4 6 11 5 2 4 4 4 5 6 7
6 6 7 8 8 10 10 10 10 10 9 8 8 9 11 13 13 12 10 8 8 8 9 9 12 12 13 14 11 9 8 9 9 5 4 7 7 6 8 6 2 5 7 6 2 5 4 2 3 6 8 11 11 11 13 14 11 10 13 12 9 8 10 10 9 9 10 10 8 5 6 4 2 6 5 1 1 6 2 9 9 4 1 3 4 5 6 6
10 9 9 8 7 8 9 9 9 9 7 6 7 9 9 12 14 12 12 11 11 10 10 10 13 12 11 12 13 12 11 11 13 9 7 8 7 6 6 4 4 6 7 6 2 5 5 5 4 5 7 8 10 12 14 12 9 10 11 7 5 8 8 7 7 8 8 8 6 7 7 2 4 6 4 1 1 4 4 2 8 7 4 3 4 5 5 6
13 12 10 8 7 7 7 8 8 8 7 7 8 10 10 12 13 13 11 11 12 14 11 10 11 9 9 13 15 16 14 14 15 11 7 9 10 8 6 6 8 8 5 5 5 2 4 6 5 5 6 7 10 12 11 8 6 6 5 6 8 9 7 6 7 6 4 5 6 6 3 2 6 6 2 2 2 1 2 1 3 6 8 7 5 3 3 3
Wind_Direction
2 359 355 354 352 348 346 342 339 336 334 333 330 328 324 323 323 323 325 326 328 329 331 331 330 329 329 331 334 337 332 322 296 257 226 245 283 300 287 250 254 250 224 215 235 249 241 236 238 244 253 252 240 253 263 233 141 166 111 83 175 128 151 250 226 219 253 145 142 143 136 126 123 123 136 135 113 126 150 142 120 119 117 115 123 130 132 135
359 357 353 352 350 347 345 340 338 335 333 332 328 325 322 321 321 322 322 324 327 329 331 331 329 330 332 338 341 343 345 318 281 265 233 254 291 289 276 258 246 224 206 218 233 243 249 253 255 247 250 256 238 245 252 238 143 273 10 93 126 108 164 245 220 239 274 141 142 143 142 131 130 134 144 140 135 151 138 113 109 111 112 119 128 133 135 139
357 355 352 351 350 346 343 340 338 335 333 329 325 322 320 320 320 320 321 323 327 328 330 330 328 329 335 340 340 352 345 303 273 258 75 352 308 281 257 237 224 207 204 224 253 268 270 283 297 292 267 264 252 249 257 205 235 334 48 53 94 109 117 258 224 240 227 145 138 139 155 139 132 134 144 151 147 146 126 117 121 122 125 130 133 136 140 144
357 354 353 351 348 345 343 340 338 336 332 327 323 321 320 319 318 319 320 322 324 327 328 327 327 327 336 340 345 6 326 286 279 76 51 357 314 243 225 219 206 201 210 241 275 285 279 281 285 282 274 273 260 253 265 186 135 44 69 39 94 118 157 237 221 226 182 145 132 185 190 143 131 138 152 160 147 139 132 130 132 132 134 137 139 143 145 145
357 355 354 351 348 347 344 341 340 336 330 326 323 321 320 319 318 319 319 321 322 325 324 322 323 324 334 342 357 2 309 280 85 72 44 357 316 202 201 204 194 195 224 260 274 276 271 271 271 268 263 268 268 255 259 79 70 57 82 61 83 125 172 211 203 206 168 133 134 200 224 129 129 138 151 167 146 129 131 132 134 135 138 142 143 145 144 145
357 356 353 351 349 348 346 343 339 335 331 327 323 321 320 319 319 319 319 321 322 322 321 318 319 324 335 341 5 332 288 334 82 68 47 12 323 175 182 187 185 191 243 269 270 267 259 256 257 256 252 253 262 254 198 59 57 63 107 90 81 134 141 180 171 148 208 151 134 161 337 20 146 126 128 164 127 117 131 136 136 137 142 143 143 145 147 149
357 356 352 350 349 348 346 343 338 335 332 327 324 322 320 319 319 320 321 323 324 323 318 314 318 328 335 332 342 266 256 24 83 76 47 25 56 135 174 180 192 211 258 271 265 260 260 256 253 257 258 253 266 269 58 49 95 83 76 82 348 18 58 185 164 149 193 133 110 99 25 330 226 117 111 149 131 127 136 137 135 139 144 143 145 146 147 150
357 356 352 350 349 348 345 342 338 334 330 327 325 322 320 320 320 322 325 328 328 326 316 316 324 328 337 334 300 256 240 74 95 95 48 56 75 116 163 178 210 237 262 268 267 267 271 262 253 259 263 280 306 293 323 312 78 74 57 45 37 31 25 271 131 128 138 89 85 82 62 303 294 121 139 157 145 129 131 136 136 141 145 144 148 144 144 148
358 356 352 350 349 347 344 341 337 334 331 327 324 321 321 320 321 325 330 334 330 327 321 315 321 323 338 331 280 271 68 71 105 117 69 89 119 152 180 206 214 232 260 265 268 270 273 261 256 280 292 301 304 299 354 338 48 69 56 40 37 37 41 66 91 98 99 76 80 89 141 237 275 262 162 151 136 126 136 141 137 143 146 145 145 140 143 143
356 355 352 350 349 347 344 340 337 334 330 326 324 321 321 321 322 327 333 335 329 328 322 310 322 324 317 277 270 289 71 61 123 129 116 142 172 192 213 232 229 234 258 266 265 265 269 274 294 319 312 298 280 299 14 2 82 80 73 59 44 44 57 73 68 74 88 72 78 113 168 230 288 294 150 139 140 143 147 141 141 150 147 145 144 139 145 144
353 353 351 349 348 347 343 340 337 333 329 326 323 320 321 322 321 326 333 331 325 325 316 308 322 322 293 267 275 360 47 260 165 146 183 188 203 221 227 243 257 250 258 268 261 267 273 284 310 308 301 319 300 304 36 93 101 84 75 76 64 54 54 54 44 45 78 66 68 110 50 329 282 292 132 154 164 154 147 143 152 154 146 147 144 142 148 142
349 350 348 348 347 346 343 341 337 331 329 324 321 321 320 321 319 323 327 317 316 321 314 310 325 337 298 268 275 23 337 246 207 194 189 204 222 229 250 259 262 257 266 274 262 264 270 283 306 289 288 315 302 318 12 71 89 82 67 89 90 74 60 60 63 43 70 88 115 116 55 321 231 200 151 175 193 167 153 152 158 153 150 150 142 145 150 141
344 345 346 346 345 345 343 340 336 330 328 323 321 319 317 318 315 316 318 305 306 314 310 307 328 331 285 276 58 32 305 234 206 230 195 218 231 219 255 261 255 260 267 279 285 290 280 286 291 281 291 291 294 357 316 95 90 93 55 125 134 101 58 70 126 120 87 104 134 157 101 198 201 192 186 190 206 187 164 157 159 157 154 148 146 154 153 147
340 341 342 344 344 343 342 339 335 329 324 320 317 316 317 315 310 310 305 288 297 311 304 295 321 298 264 272 72 45 284 157 166 207 208 218 229 222 229 245 248 253 256 264 280 294 293 289 276 271 279 271 291 333 261 173 107 119 245 238 190 139 59 97 161 145 109 106 129 192 181 198 191 175 193 212 215 199 179 165 160 165 156 147 157 158 152 154
337 339 340 341 342 341 341 339 334 328 322 319 315 316 316 311 307 304 290 279 301 312 304 293 272 235 262 233 112 80 140 176 182 184 203 214 232 223 184 224 244 238 251 254 262 277 277 273 267 259 258 253 253 282 264 183 128 160 219 220 171 83 106 173 189 169 154 128 162 199 167 215 201 175 195 211 286 255 197 179 164 167 162 154 165 158 156 163
336 337 338 339 339 339 338 337 332 327 321 315 314 316 317 310 305 300 284 277 303 311 299 285 228 213 278 343 134 142 170 186 157 163 187 233 258 268 127 246 251 220 236 239 246 263 259 253 256 257 267 268 245 243 260 219 171 174 222 272 62 87 137 159 163 171 191 163 180 207 198 214 192 194 211 75 10 305 282 216 175 170 170 163 169 157 158 166
336 336 338 337 337 337 336 336 332 326 318 314 315 316 317 308 299 299 285 274 300 306 261 273 263 234 271 77 146 164 169 73 54 180 193 246 272 317 153 223 217 203 222 224 232 246 245 237 244 253 253 263 257 249 251 244 223 170 206 260 88 132 131 122 108 170 196 195 198 211 208 245 186 185 215 87 150 233 275 252 183 178 179 167 172 156 159 170
337 336 336 336 336 335 334 334 331 324 315 312 313 316 318 306 292 296 285 275 294 281 256 262 271 272 228 177 193 117 64 37 55 180 204 232 255 254 225 232 208 195 211 216 221 223 222 214 226 245 238 235 244 254 254 240 347 357 257 312 137 145 112 115 138 165 185 205 216 211 204 222 210 180 184 186 177 184 253 274 357 297 222 176 178 160 157 168
340 337 337 336 335 333 333 332 330 325 314 308 315 320 317 303 286 282 260 246 236 246 278 216 219 277 46 150 114 73 53 48 129 193 213 213 211 223 233 253 217 208 219 197 189 207 209 204 222 235 244 235 216 228 268 225 140 217 246 264 234 151 120 124 132 151 176 197 206 216 209 188 200 200 186 186 186 183 229 276 291 268 267 203 184 155 153 164
343 341 338 335 334 332 331 330 327 324 312 308 321 322 308 291 266 247 214 225 233 255 310 115 225 309 42 68 86 113 100 142 202 209 185 184 223 227 218 218 206 212 234 202 168 194 210 220 224 227 243 246 240 251 253 222 151 219 237 246 235 172 147 144 139 145 164 197 217 222 224 194 200 207 192 168 175 193 192 238 236 219 265 242 191 154 160 171
343 343 341 337 335 331 329 327 324 320 310 311 323 313 311 5 341 329 338 257 234 243 297 37 329 339 46 350 329 172 183 184 198 156 127 182 226 223 179 200 218 208 228 224 175 157 204 245 241 240 243 246 309 328 275 230 205 254 247 249 247 184 141 139 140 152 166 200 216 199 225 258 225 209 196 166 167 198 189 200 222 207 227 259 210 160 161 170
342 343 341 339 335 331 326 323 319 312 305 308 306 274 302 14 346 323 332 286 244 199 246 243 248 206 92 343 323 221 226 192 160 133 137 204 219 217 185 202 229 215 205 221 205 162 203 237 239 244 248 246 289 326 333 337 282 265 254 253 250 124 117 124 134 148 168 215 139 150 202 292 245 209 202 184 176 192 199 204 211 205 209 254 242 167 153 163
341 340 340 340 336 331 323 316 315 305 295 290 278 279 316 2 334 325 317 283 271 203 214 238 255 204 143 193 145 209 245 225 145 128 125 227 221 218 242 235 243 238 197 205 233 225 213 201 245 251 242 20 291 276 306 309 278 267 259 276 262 140 155 151 154 160 168 196 90 122 204 223 308 210 199 203 200 182 185 214 211 203 203 228 253 195 155 162
339 338 338 339 335 331 323 314 303 282 271 263 266 286 339 343 332 338 322 280 268 223 199 194 276 263 76 46 187 241 255 345 90 124 126 233 235 189 243 250 265 256 207 209 238 254 276 338 7 343 70 59 293 271 264 260 256 253 234 259 266 179 226 113 143 178 167 135 93 140 242 179 175 199 182 201 229 190 169 205 213 207 206 215 251 239 170 161
338 337 335 337 335 329 322 312 288 265 261 256 258 276 337 333 342 341 321 285 260 214 156 144 217 262 67 171 235 260 267 92 104 112 137 233 269 292 269 263 249 264 239 204 225 252 279 294 100 315 31 224 275 271 263 257 256 260 237 238 245 249 256 142 133 171 195 144 136 201 297 193 170 185 170 183 206 199 189 201 207 204 207 211 229 238 191 165
337 336 333 335 335 328 323 311 307 309 287 266 263 330 332 335 347 332 307 269 256 190 155 181 194 157 136 207 225 214 188 168 108 100 166 222 274 276 273 234 200 275 336 267 245 248 262 298 64 301 280 263 263 263 264 270 271 269 263 267 269 272 269 166 139 145 273 291 141 179 297 316 176 224 207 188 188 198 200 205 208 200 204 212 212 223 201 170
335 334 331 331 335 334 327 312 320 312 288 301 350 336 328 338 336 322 287 257 250 171 167 173 143 154 187 201 247 284 203 136 122 160 188 182 250 242 234 249 225 250 323 233 246 228 232 264 48 258 274 269 262 257 241 245 263 276 296 336 303 300 3 318 266 256 313 312 178 185 240 274 246 215 195 181 187 206 204 207 211 200 202 209 206 215 205 176
334 333 329 325 331 330 310 303 310 289 286 347 341 310 323 325 312 294 267 279 163 153 180 128 98 174 198 160 230 271 305 126 189 188 135 135 248 241 246 275 296 297 268 253 250 123 193 248 252 235 252 249 251 267 261 241 233 262 282 312 310 299 324 309 286 293 316 287 254 194 175 250 278 139 157 166 186 213 207 205 208 200 202 206 202 207 207 185
333 331 326 321 322 323 309 301 294 276 287 321 319 308 313 305 299 270 259 281 152 171 146 93 134 185 203 216 212 247 219 172 245 147 133 191 233 244 283 301 315 288 270 266 269 298 165 262 306 308 259 248 244 260 272 260 250 272 293 303 301 283 276 276 281 293 288 265 266 240 190 214 249 165 173 174 193 213 205 201 203 201 202 203 200 200 205 193
332 328 324 320 319 332 322 289 274 279 287 296 304 305 299 288 280 254 250 268 161 153 137 155 203 171 192 222 203 215 221 179 189 163 170 223 199 195 267 275 275 274 261 244 248 256 202 200 294 288 261 278 293 300 305 293 305 325 316 297 288 272 252 241 240 250 273 258 260 268 193 229 253 186 180 191 206 209 198 192 193 197 202 202 200 197 203 199
330 326 320 314 307 308 301 271 276 314 300 293 301 293 284 270 245 259 257 289 253 167 164 174 164 171 207 233 214 194 208 196 171 186 201 215 201 196 230 229 235 257 254 237 226 233 214 186 215 214 222 275 289 290 291 274 286 300 284 274 283 274 248 232 218 197 248 256 226 71 93 144 246 224 201 218 219 210 197 187 186 191 200 199 198 196 198 198
328 324 313 301 293 282 269 263 310 327 311 304 298 275 270 244 226 250 242 219 211 177 200 179 157 203 226 238 236 193 198 191 174 210 243 231 213 205 217 228 243 252 262 255 209 217 213 185 202 196 173 229 267 256 250 229 224 234 243 253 265 271 259 239 222 212 255 267 88 82 102 175 238 240 223 220 219 223 200 183 183 188 198 198 195 195 191 196
329 321 304 290 283 273 266 273 296 303 297 293 277 256 257 244 236 242 235 235 146 106 353 163 146 235 248 239 227 166 113 171 178 231 254 257 252 205 202 228 289 258 286 312 249 215 197 159 171 197 150 159 269 275 254 230 223 227 232 249 251 258 265 255 239 237 259 220 102 104 302 272 253 242 274 224 211 228 203 178 184 184 194 201 196 194 188 194
330 315 296 283 276 271 264 262 267 278 282 272 253 238 236 244 255 258 257 248 132 142 216 203 179 230 249 260 214 160 217 197 184 241 205 232 261 219 191 206 311 266 281 307 303 317 302 168 162 168 112 144 261 287 282 299 298 272 310 317 280 276 280 271 264 260 262 154 123 138 178 282 275 36 323 303 197 237 198 164 176 182 189 199 199 200 191 189
332 313 293 278 270 270 256 236 237 254 265 252 239 234 227 238 245 246 273 332 117 172 184 179 232 239 226 235 177 150 230 206 173 243 231 248 272 305 113 134 101 334 306 320 345 325 292 239 127 126 108 229 260 297 304 299 294 305 350 313 289 336 324 294 282 284 286 262 165 167 186 250 260 183 319 14 49 15 337 151 164 180 185 189 199 210 200 195
334 316 287 261 255 258 234 218 220 227 241 239 230 229 227 241 253 249 288 352 346 277 188 176 213 247 226 197 185 165 199 206 170 236 239 249 265 325 41 55 74 359 325 340 331 302 289 75 138 180 194 218 259 355 330 305 309 325 322 282 303 354 320 290 286 296 296 281 269 299 245 154 123 194 354 32 67 53 339 270 171 178 182 187 200 214 212 206
331 313 282 260 242 217 196 197 201 210 229 239 231 237 241 241 256 267 250 62 339 322 277 245 194 231 254 224 194 168 176 205 205 235 237 212 235 287 321 23 60 347 331 337 302 312 340 309 245 238 248 162 115 345 284 285 345 307 296 315 341 340 307 302 303 306 301 281 292 300 270 190 133 230 335 7 87 118 181 258 198 191 189 193 199 211 225 216
319 299 283 265 224 172 175 186 193 206 221 235 237 248 259 254 259 279 319 104 268 267 261 269 219 206 270 269 177 158 173 193 177 219 251 174 148 353 311 359 111 124 321 307 282 313 333 303 278 145 301 168 140 225 262 158 121 286 303 327 328 292 287 322 297 292 295 280 289 287 268 158 87 295 23 349 3 113 169 229 208 205 202 206 203 204 232 230
295 274 276 226 173 155 169 182 193 214 222 230 237 238 254 261 264 282 334 33 264 255 253 265 248 210 250 274 67 155 192 210 170 214 263 143 135 186 286 324 121 124 318 282 288 326 310 306 283 169 226 3 121 244 280 142 133 324 325 284 248 249 260 257 236 264 279 276 292 293 279 108 94 34 42 329 319 344 227 206 184 209 206 218 223 208 219 238
287 276 249 150 152 156 163 176 201 221 221 228 241 239 244 255 257 256 249 212 255 255 250 262 255 233 243 272 312 257 225 237 235 280 310 121 176 199 173 217 228 178 21 278 274 287 261 290 282 241 280 303 235 178 321 333 109 352 341 298 274 280 268 247 219 227 256 271 286 285 282 75 90 16 20 329 321 330 312 266 189 232 231 224 247 227 201 217
290 288 179 141 149 158 160 181 213 218 228 234 243 251 252 259 266 256 214 183 232 254 255 273 281 279 271 264 270 260 244 248 253 283 273 164 186 224 126 90 238 297 1 290 264 292 277 277 306 299 284 270 282 75 46 66 110 137 263 235 259 284 292 279 249 220 247 260 270 275 279 83 62 337 2 8 352 349 331 312 196 186 260 243 274 263 207 185
273 286 152 147 160 168 174 209 218 216 236 237 240 248 250 256 273 277 230 166 217 249 252 265 272 279 288 278 271 263 248 254 239 234 237 210 107 78 84 71 47 339 334 285 295 354 343 297 303 308 295 300 314 316 141 109 105 258 259 267 270 259 20 306 295 300 286 282 293 291 292 214 191 247 29 37 358 355 354 339 350 129 221 221 172 288 254 181
284 312 149 160 175 185 203 229 220 225 239 243 250 252 249 240 249 270 266 209 214 236 238 240 246 259 272 267 274 274 217 237 254 258 289 299 97 102 105 69 29 312 290 275 320 8 337 279 276 287 289 300 296 283 137 100 68 276 294 332 312 307 331 302 318 334 307 300 311 297 294 228 175 214 184 78 35 21 37 9 343 23 176 210 172 212 241 195
313 304 245 172 182 198 224 237 230 230 228 235 245 249 253 253 234 250 256 236 219 227 236 236 232 239 244 241 258 259 209 202 239 251 318 327 85 99 115 109 34 264 272 360 18 1 317 284 289 278 276 281 269 254 159 95 342 314 325 344 320 317 312 265 193 12 325 311 323 306 297 19 104 201 195 111 78 38 57 48 333 318 155 213 215 213 230 202
304 282 248 183 186 211 233 239 248 251 246 248 247 243 249 251 232 238 254 256 238 228 240 239 230 238 239 229 244 249 243 260 228 198 221 239 129 113 151 135 190 262 20 29 9 334 305 310 333 303 297 295 275 282 326 331 321 288 266 260 238 279 296 232 145 45 296 306 326 321 317 333 300 229 187 99 98 119 126 108 269 269 162 174 240 261 250 213
304 283 265 198 184 212 238 246 259 267 276 285 277 253 242 236 227 220 236 259 250 231 244 242 225 233 232 221 229 235 236 255 245 226 275 272 154 156 163 152 196 263 46 19 337 308 296 294 298 285 277 279 281 294 289 267 256 259 262 257 251 245 170 135 141 185 188 262 295 236 266 307 292 250 82 42 72 217 224 143 190 229 142 149 199 246 269 243
289 282 291 307 193 213 224 233 241 249 263 273 285 284 259 240 234 211 202 232 253 243 244 242 233 238 233 221 227 232 225 229 241 249 270 287 300 248 161 170 192 139 98 329 283 276 283 274 270 264 259 257 249 246 251 252 262 297 294 282 283 277 187 162 199 218 175 215 263 198 97 325 310 334 60 5 325 316 301 218 173 170 148 160 180 202 241 240
289 276 315 351 328 250 237 248 254 252 249 247 258 287 283 264 249 226 194 198 243 252 238 232 241 248 246 231 229 237 228 223 238 239 217 222 270 233 182 196 173 127 137 247 236 200 258 269 275 275 278 280 274 270 275 277 279 275 273 281 288 283 252 227 245 238 188 214 267 278 311 285 290 310 39 46 29 355 312 293 215 151 164 174 181 204 223 223
308 295 322 347 328 293 295 309 309 287 259 250 249 254 266 272 265 254 222 187 211 239 230 228 240 241 243 243 240 242 232 228 248 253 242 263 284 268 229 233 135 127 167 249 223 194 237 251 280 291 300 303 298 298 294 287 273 225 231 251 263 274 269 255 255 248 224 232 251 259 265 274 291 18 55 41 92 93 314 305 299 173 164 170 191 211 221 224
316 321 325 330 316 305 306 306 303 288 266 266 268 252 254 265 265 265 256 221 208 215 209 226 246 243 237 236 239 247 246 253 268 259 217 243 266 271 261 265 227 173 206 245 190 150 199 247 320 305 296 292 287 281 273 267 262 248 237 231 235 259 265 256 256 259 252 247 243 247 264 273 46 71 75 345 135 114 48 317 306 291 170 173 204 207 210 225
330 325 319 309 296 305 310 299 286 276 261 253 260 262 262 260 257 263 271 268 257 236 209 215 236 244 248 239 235 238 233 243 261 252 219 231 239 244 253 260 265 239 223 238 220 150 191 255 287 272 271 274 268 266 266 266 274 277 270 270 275 263 253 247 248 254 266 273 266 262 271 268 102 100 108 213 270 103 104 291 289 299 308 260 233 217 217 228
341 327 320 309 289 292 293 283 277 270 261 253 252 252 254 257 257 255 259 268 265 251 236 231 231 235 253 245 235 234 226 227 242 239 224 236 238 238 240 224 237 250 246 257 275 260 256 276 280 271 284 286 273 277 285 288 294 291 302 347 332 303 296 285 258 246 266 292 284 280 296 88 114 122 149 228 254 69 109 193 300 329 325 312 306 296 276 288